SCP
3 3 2 2 1 1 0 0 0 0 0 1 1 0 0 0 0 0 0 0 0 0 0 0 0 0 0 0 0 0 0 0 0 0 0 0 0 0 0 0 0 0 0
2 2 1 1 1 1 0 0 0 0 0 0 0 0 0 0 0 0 0 0 0 0 0 0 0 0 0 0 0 0 0 0 0 0 0 0 0 0 0 0 0 0 0
1 1 1 1 1 1 1 0 0 0 0 0 0 0 0 0 0 0 0 0 0 0 0 0 0 0 0 0 0 0 0 0 0 0 0 0 0 0 0 0 0 0 0
1 1 1 1 1 2 1 1 1 0 0 0 0 0 0 0 0 0 0 0 0 0 0 0 0 0 0 0 0 0 0 0 0 0 0 0 0 0 0 0 0 0 0
1 1 1 1 2 2 2 2 1 1 0 0 0 0 0 0 0 0 0 0 0 0 0 0 0 0 0 0 0 0 0 0 0 0 0 0 0 0 0 0 0 0 0
1 1 1 1 2 2 3 2 2 1 1 0 0 0 0 0 0 0 0 0 0 0 0 0 0 0 0 0 0 0 0 0 0 0 0 0 0 0 0 0 0 0 0
0 0 1 1 1 2 3 3 2 2 1 1 0 0 0 0 0 0 0 0 0 0 0 0 0 0 0 0 0 0 0 0 0 0 0 0 0 0 0 0 0 0 0
1 1 1 1 1 2 2 3 3 2 2 1 1 0 0 0 0 0 0 0 0 0 0 0 0 0 0 0 0 0 0 0 0 0 0 0 0 0 0 0 0 0 0
1 1 1 1 1 1 2 2 3 3 2 2 1 0 0 0 0 0 0 0 0 0 0 0 0 0 0 0 0 0 0 0 0 0 0 0 0 0 0 0 0 0 0
1 1 1 1 1 1 1 2 3 3 2 2 1 0 0 0 0 0 0 0 0 0 0 0 0 0 0 0 0 0 0 0 0 0 0 0 0 0 0 0 0 0 0
1 1 1 1 0 0 1 1 2 2 2 1 1 0 0 0 0 0 0 0 0 0 0 0 0 0 0 0 0 0 0 0 0 0 0 0 0 0 0 0 0 0 0
1 1 1 0 0 0 0 0 0 0 0 0 0 0 0 0 0 0 0 0 0 0 0 0 0 0 0 0 0 0 0 0 0 0 0 0 0 0 0 0 0 0 0
1 1 0 0 0 0 0 0 0 0 0 0 0 0 0 0 0 0 0 0 0 0 0 0 0 0 0 0 0 0 0 0 0 0 0 0 0 0 0 0 0 0 0
0 0 0 0 0 0 0 0 0 0 0 0 0 0 0 0 0 0 0 0 0 0 0 0 0 0 0 0 0 0 0 0 0 0 0 0 0 0 0 0 0 0 0
0 0 0 0 0 0 0 0 0 0 0 0 0 0 0 0 0 0 0 0 0 0 0 0 0 0 0 0 0 0 0 0 0 0 0 0 0 0 0 0 0 0 0
0 0 0 0 0 0 0 0 0 0 0 0 0 0 0 0 0 0 0 0 0 0 0 0 0 0 0 0 0 0 0 0 0 0 0 0 0 0 0 0 0 0 0
0 0 0 0 0 0 0 0 0 0 0 0 0 0 0 0 0 0 0 0 0 0 0 0 0 0 0 0 0 0 0 0 0 0 0 0 0 0 0 0 0 0 0
0 0 0 0 0 0 0 0 0 0 0 0 0 0 0 0 0 0 0 0 0 0 0 0 0 0 0 0 0 0 0 0 0 0 0 0 0 0 0 0 0 0 0
0 0 0 0 0 0 0 0 0 0 0 0 0 0 0 0 0 0 0 0 0 0 0 0 0 0 0 0 0 0 0 0 0 0 0 0 0 0 0 0 0 0 0
0 0 0 0 0 0 0 0 0 0 0 0 0 0 0 0 0 0 0 0 0 0 0 0 0 0 0 0 0 0 0 0 0 0 0 0 0 0 0 0 0 0 0
0 0 0 0 0 0 0 0 0 0 0 0 0 0 0 0 0 0 0 0 0 0 0 0 0 0 0 0 0 0 0 0 0 0 0 0 0 0 0 0 0 0 0
0 0 0 0 0 0 0 0 0 0 0 0 0 0 0 0 0 0 0 0 0 0 0 0 0 0 0 0 0 0 0 0 0 0 0 0 0 0 0 0 0 0 0
0 0 0 0 0 0 0 0 0 0 0 0 0 0 0 0 0 0 0 0 0 0 0 0 0 0 0 0 0 0 0 0 0 0 0 0 0 0 0 0 0 0 0
0 0 0 0 0 0 0 0 0 0 0 0 0 0 0 0 0 0 0 0 0 0 0 0 0 0 0 0 0 0 0 0 0 0 0 0 0 0 0 0 0 0 0
0 0 0 0 0 0 0 0 0 0 0 0 0 -0 -0 0 0 0 0 0 0 0 0 0 0 0 0 0 0 0 0 0 0 0 0 0 0 0 0 0 0 0 0
0 0 0 0 0 0 0 0 0 0 0 0 0 -0 -0 0 0 0 0 0 0 0 0 0 0 0 0 0 0 0 0 0 0 0 0 0 0 0 0 0 0 0 0
Wind_Speed
6 6 6 6 6 6 6 6 6 5 6 6 6 6 6 6 6 5 5 5 5 3 3 3 2 2 2 1 1 2 1 2 2 1 1 2 3 4 4 4 4 4 4
6 6 5 5 5 6 5 5 5 5 5 6 6 6 5 5 5 6 6 6 5 5 4 3 3 2 2 1 1 2 1 1 2 2 1 2 3 3 4 4 4 4 4
6 6 6 5 5 5 5 5 5 5 5 5 6 6 5 5 5 5 5 5 5 4 4 4 3 4 3 2 2 2 1 1 1 2 1 2 2 3 3 4 5 4 4
6 6 6 6 5 5 5 4 5 5 5 5 5 5 5 4 4 4 4 5 5 4 4 4 3 3 3 3 3 2 2 3 3 2 2 2 2 3 3 3 3 3 3
6 6 6 6 5 5 5 5 5 5 5 5 6 5 4 4 3 5 5 6 6 7 7 6 7 8 8 6 4 3 3 3 3 3 2 2 2 3 3 2 2 2 2
6 6 6 6 6 6 6 7 7 6 6 6 6 6 5 4 6 8 8 8 7 8 8 7 8 10 13 14 14 12 8 5 4 3 2 3 2 2 2 2 2 2 2
6 6 6 7 7 7 7 8 7 7 7 7 7 7 7 8 11 12 13 9 9 8 7 6 6 7 8 8 12 14 14 14 10 5 5 3 3 3 2 2 2 2 2
6 5 6 7 7 7 8 8 7 7 7 7 7 8 9 10 13 14 15 11 10 9 8 7 8 7 7 8 9 10 10 10 9 7 6 5 5 4 3 2 2 2 1
6 5 6 7 8 8 8 8 8 8 8 8 7 8 9 10 12 13 13 9 10 10 9 9 9 8 11 11 9 9 9 8 11 14 13 12 13 12 8 4 4 3 2
6 5 6 7 8 9 10 9 8 8 9 9 9 8 9 9 11 13 12 8 10 9 8 9 13 12 12 11 8 8 8 6 6 8 9 10 9 11 12 7 4 3 2
7 8 8 8 9 10 10 9 9 9 10 10 11 9 9 9 11 12 11 7 8 8 7 6 7 14 14 13 11 8 8 6 6 7 7 7 7 7 7 6 5 3 3
8 9 9 9 9 10 11 10 10 10 11 10 10 9 8 8 9 11 13 12 10 9 7 6 8 13 14 13 10 11 11 8 6 6 6 6 6 6 6 6 6 5 3
10 10 10 11 10 10 11 11 9 9 9 8 8 8 7 6 8 14 15 15 14 9 8 12 12 13 12 10 13 12 9 6 6 6 5 5 4 4 5 5 5 6 5
11 11 11 12 11 10 8 7 8 8 8 8 8 7 7 7 6 6 7 9 12 11 9 11 13 13 10 10 9 8 6 5 5 4 4 3 4 5 5 5 5 6 5
12 11 11 11 11 12 11 9 9 7 7 8 7 6 7 7 5 7 7 6 6 7 7 6 6 5 6 5 5 5 5 5 5 4 4 4 5 5 5 5 4 5 5
12 11 9 9 9 10 12 13 18 15 17 15 12 10 8 8 10 11 12 12 11 10 8 6 5 4 4 4 4 4 4 4 4 4 4 4 5 6 6 6 5 5 6
12 11 9 9 9 10 10 11 12 13 17 16 13 13 12 11 12 13 13 12 10 9 7 5 4 4 3 3 3 3 3 3 3 3 4 5 5 5 6 6 6 6 6
13 13 11 9 9 9 9 9 9 10 9 7 9 11 11 12 12 12 12 10 7 6 5 4 3 3 2 2 2 2 2 2 3 3 4 4 5 5 6 7 7 8 7
11 9 9 9 9 9 9 9 9 9 8 7 6 7 9 10 10 9 7 6 5 4 3 3 2 2 2 1 1 1 2 2 3 4 4 5 5 5 6 6 7 8 7
10 16 12 9 9 9 8 8 8 8 7 6 6 5 4 5 4 4 4 3 3 3 2 2 1 1 1 0 1 1 2 2 3 3 4 5 5 5 6 7 7 7 7
9 11 14 10 8 8 7 7 7 7 6 5 4 4 5 5 4 4 3 2 2 2 2 1 1 1 0 0 1 1 2 3 3 4 4 5 5 5 5 6 7 7 7
8 7 7 8 7 7 6 6 6 6 6 6 4 4 5 4 3 3 2 1 1 1 1 1 1 1 1 1 1 2 2 3 4 4 5 5 5 5 6 6 7 7 7
8 9 8 7 7 8 7 6 6 6 6 5 5 4 3 3 2 2 2 1 1 1 1 1 1 1 1 1 1 1 2 3 3 4 5 5 5 5 6 7 8 9 9
8 8 8 7 7 6 6 6 5 5 5 5 4 3 3 2 2 2 2 1 1 1 1 1 2 2 3 2 1 2 2 3 3 3 5 5 6 6 6 7 8 9 9
7 7 7 7 7 6 6 6 5 5 4 4 4 3 3 2 2 2 2 2 2 2 2 2 2 3 4 4 4 3 3 4 4 4 4 4 6 7 7 8 8 9 9
7 7 6 6 6 6 6 5 5 5 4 4 3 3 3 3 3 2 2 2 2 2 3 3 4 5 5 5 5 5 4 4 4 4 4 4 6 6 7 7 9 9 9
Wind_Direction
161 161 156 156 158 160 165 171 172 166 163 165 167 163 160 158 156 154 156 156 155 153 154 158 161 146 134 131 125 125 134 148 173 209 3 3 24 35 35 46 52 55 57
155 149 149 149 150 155 160 164 161 162 163 161 157 157 161 162 162 166 168 164 162 164 166 156 159 146 136 135 134 134 146 171 171 175 50 25 32 30 38 44 42 51 60
143 142 142 141 144 151 155 155 153 153 151 147 144 149 155 158 163 166 163 158 156 157 154 152 153 148 144 130 121 119 115 108 116 136 101 42 34 27 34 40 40 27 45
140 141 144 143 143 142 138 135 138 140 142 141 139 143 146 148 148 147 143 136 125 112 107 110 109 120 122 114 96 85 90 85 83 95 84 49 34 20 39 33 28 20 24
137 142 144 135 128 124 121 119 116 118 123 123 121 117 117 124 135 134 127 120 110 98 86 82 84 89 91 89 89 84 89 90 86 82 70 54 35 24 22 5 12 357 25
140 143 137 132 130 127 121 115 109 103 100 101 104 104 94 87 101 110 112 106 101 98 92 81 75 73 79 78 76 73 76 84 89 87 75 65 36 15 5 6 5 4 357
145 145 143 139 135 131 124 116 115 110 100 94 91 92 87 81 92 98 98 98 94 90 88 84 79 72 72 78 73 68 63 62 68 89 83 64 41 11 5 16 16 359 335
143 144 144 141 134 128 122 119 112 104 100 94 90 90 88 82 89 96 98 94 89 82 78 81 85 74 72 81 81 74 66 58 59 65 74 62 51 34 28 21 350 329 303
138 143 142 139 134 128 122 116 109 103 96 89 87 89 91 86 86 94 97 95 89 80 74 71 79 77 74 80 84 81 72 63 64 67 67 61 56 51 44 39 25 13 351
144 136 131 131 128 124 119 111 105 103 101 96 85 81 87 89 87 90 95 99 96 89 76 69 71 77 72 74 81 85 79 61 58 56 52 46 44 42 41 41 28 14 351
124 117 113 115 117 117 111 110 110 105 100 94 88 78 75 78 83 84 90 100 105 100 89 78 74 78 76 73 74 76 82 82 70 64 56 45 37 32 27 23 21 11 351
113 111 110 108 109 110 109 107 106 107 102 97 92 82 68 64 71 81 83 87 95 99 97 92 87 83 79 76 76 77 76 73 67 60 53 39 29 19 8 3 3 2 340
111 109 107 102 99 103 108 111 108 105 103 100 95 90 79 68 68 74 81 85 88 90 93 95 88 81 79 74 71 69 67 65 64 59 48 32 12 357 354 351 353 349 342
110 107 106 102 97 91 88 92 98 102 104 103 100 97 88 75 70 76 82 86 87 89 89 87 80 71 69 67 64 59 57 59 62 55 37 16 3 2 4 358 348 346 337
104 102 99 98 99 92 81 70 79 71 99 110 106 104 102 95 83 95 104 99 101 105 102 86 76 71 68 64 60 55 52 49 46 36 25 14 5 1 356 351 344 341 336
105 101 99 101 101 101 97 82 66 77 79 84 94 102 88 98 104 98 97 98 101 106 96 90 85 79 76 69 62 52 44 38 29 21 15 7 358 352 346 345 343 338 332
107 107 106 106 106 105 105 106 98 75 68 72 81 92 101 105 102 103 101 95 92 94 91 93 92 87 80 70 59 48 32 21 13 10 5 356 349 344 340 339 340 336 330
102 106 107 105 106 107 107 107 109 110 101 78 67 82 96 99 100 104 105 93 77 71 89 98 98 92 82 69 55 40 20 8 4 357 351 347 343 339 337 336 334 331 325
101 103 102 101 102 104 105 104 104 104 105 103 95 80 86 91 84 81 86 90 100 94 90 91 95 95 83 68 46 16 357 348 346 342 341 339 337 333 330 328 324 322 319
101 111 111 109 108 107 107 109 110 110 110 111 113 116 112 97 92 79 77 97 107 110 110 108 104 99 90 61 4 342 337 337 338 336 333 332 330 327 324 323 322 320 317
108 114 114 110 110 113 115 117 119 120 121 120 119 124 129 119 119 117 115 116 126 135 139 137 130 121 109 305 313 322 326 329 332 330 327 326 326 323 320 316 315 314 314
112 113 114 115 114 113 115 116 118 120 125 124 118 109 113 111 122 127 134 147 159 168 170 165 170 196 237 256 282 307 318 323 326 325 321 320 319 318 318 317 318 318 318
116 117 115 114 115 117 115 119 124 128 130 132 133 132 132 134 142 149 159 171 168 166 170 177 194 233 251 248 258 269 290 304 307 307 309 312 313 314 315 314 315 318 320
118 121 122 122 122 125 126 128 130 134 137 140 143 146 151 156 165 175 185 190 194 201 202 205 224 245 258 262 259 258 267 282 291 292 295 297 303 307 309 311 312 316 316
119 122 127 131 133 133 133 134 138 142 146 150 154 158 164 170 180 192 201 208 214 226 237 234 236 247 258 260 263 268 272 274 278 289 288 288 296 301 307 309 312 316 317
120 123 125 129 133 138 140 144 149 154 159 165 170 176 183 190 199 208 213 218 226 237 247 248 245 249 255 258 262 267 268 275 279 280 284 287 295 301 310 308 314 315 317